| time (UTC) | temp F | wind direction | speed MPH | gust MPH | rain 1hr in | rain 24hr in | rain mn in | humidity % | barometer mb |
| 20260507023050 | 51 | 0.0 | 0.0 | 0.00 | 0.00 | 0.00 | 87 | 1008.9 | |
| 20260507022049 | 51 | 0.0 | 0.0 | 0.00 | 0.00 | 0.00 | 85 | 1008.9 | |
| 20260507021050 | 51 | 0.0 | 0.0 | 0.00 | 0.00 | 0.00 | 82 | 1009.0 | |
| 20260507020049 | 51 | 0.0 | 0.0 | 0.00 | 0.00 | 0.00 | 82 | 1008.8 | |
| 20260507013825 | 51 | 0.0 | 0.0 | 0.00 | 0.00 | 0.00 | 83 | 1008.4 | |
| 20260507012825 | 51 | 0.0 | 0.0 | 0.00 | 0.00 | 0.00 | 84 | 1008.2 | |
| 20260507011825 | 51 | 0.0 | 0.0 | 0.00 | 0.00 | 0.00 | 84 | 1008.2 | |
| 20260507010825 | 51 | 0.0 | 0.0 | 0.00 | 0.00 | 0.00 | 85 | 1008.2 | |
| 20260507005825 | 51 | 0.0 | 0.0 | 0.00 | 0.00 | 0.00 | 87 | 1008.1 | |
| 20260507004825 | 51 | 0.0 | 0.0 | 0.00 | 0.00 | 0.00 | 87 | 1008.1 | |
| 20260507003825 | 51 | 0.0 | 0.0 | 0.00 | 0.00 | 0.00 | 86 | 1007.9 | |
| 20260507002825 | 51 | 0.0 | 0.0 | 0.00 | 0.00 | 0.00 | 86 | 1007.6 | |
| 20260507001825 | 51 | 0.0 | 0.0 | 0.00 | 0.00 | 0.00 | 85 | 1007.8 | |
| 20260507000825 | 52 | 0.0 | 0.0 | 0.00 | 0.00 | 0.00 | 85 | 1007.8 | |
| 20260506235825 | 52 | 0.0 | 0.0 | 0.00 | 0.00 | 0.00 | 85 | 1007.8 | |
| 20260506232338 | 52 | 0.0 | 0.0 | 0.00 | 0.00 | 0.00 | 84 | 1007.4 | |
| 20260506231338 | 52 | 0.0 | 0.0 | 0.00 | 0.00 | 0.00 | 84 | 1007.1 | |
| 20260506230338 | 52 | 0.0 | 0.0 | 0.00 | 0.00 | 0.00 | 83 | 1006.7 | |
| 20260506225338 | 53 | 0.0 | 0.0 | 0.00 | 0.00 | 0.00 | 84 | 1006.7 | |
| 20260506224338 | 53 | 0.0 | 0.0 | 0.00 | 0.00 | 0.00 | 83 | 1006.4 | |
| 20260506220849 | 56 | 0.0 | 0.0 | 0.00 | 0.00 | 0.00 | 74 | 1005.9 | |
| 20260506215849 | 58 | 0.0 | 0.0 | 0.00 | 0.00 | 0.00 | 68 | 1005.8 | |
| 20260506213624 | 58 | 0.0 | 0.0 | 0.00 | 0.00 | 0.00 | 67 | 1005.6 | |
| 20260506212624 | 59 | 0.0 | 0.0 | 0.00 | 0.00 | 0.00 | 67 | 1005.4 | |
| 20260506211624 | 58 | 0.0 | 0.0 | 0.00 | 0.00 | 0.00 | 67 | 1005.2 | |
| 20260506210624 | 59 | 0.0 | 0.0 | 0.00 | 0.00 | 0.00 | 66 | 1005.1 | |
| 20260506205624 | 59 | 0.0 | 0.0 | 0.00 | 0.00 | 0.00 | 65 | 1004.7 | |
| 20260506204625 | 60 | 0.0 | 0.0 | 0.00 | 0.00 | 0.00 | 64 | 1004.7 | |
| 20260506203624 | 60 | 0.0 | 0.0 | 0.00 | 0.00 | 0.00 | 64 | 1004.7 | |
| 20260506202624 | 60 | 0.0 | 0.0 | 0.00 | 0.00 | 0.00 | 63 | 1004.6 | |
| 20260506201625 | 60 | 0.0 | 0.0 | 0.00 | 0.00 | 0.00 | 63 | 1004.7 | |
| 20260506200624 | 60 | 0.0 | 0.0 | 0.00 | 0.00 | 0.00 | 62 | 1004.8 | |
| 20260506195624 | 61 | 0.0 | 0.0 | 0.00 | 0.00 | 0.00 | 61 | 1004.7 | |
| 20260506194624 | 61 | 0.0 | 0.0 | 0.00 | 0.00 | 0.00 | 60 | 1004.7 | |
| 20260506193624 | 62 | 0.0 | 0.0 | 0.00 | 0.00 | 0.00 | 59 | 1004.6 | |
| 20260506192625 | 62 | 0.0 | 0.0 | 0.00 | 0.00 | 0.00 | 58 | 1004.5 | |
| 20260506191624 | 62 | 0.0 | 0.0 | 0.00 | 0.00 | 0.00 | 58 | 1004.3 | |
| 20260506190624 | 62 | 0.0 | 0.0 | 0.00 | 0.00 | 0.00 | 57 | 1004.2 | |
| 20260506185624 | 62 | 0.0 | 0.0 | 0.00 | 0.00 | 0.00 | 57 | 1004.3 | |
| 20260506184624 | 63 | 0.0 | 0.0 | 0.00 | 0.00 | 0.00 | 56 | 1004.1 | |
| 20260506183624 | 63 | 0.0 | 0.0 | 0.00 | 0.00 | 0.00 | 56 | 1003.9 | |
| 20260506182624 | 63 | 0.0 | 0.0 | 0.00 | 0.00 | 0.00 | 55 | 1004.0 | |
| 20260506181624 | 63 | 0.0 | 0.0 | 0.00 | 0.00 | 0.00 | 55 | 1004.1 | |
| 20260506175400 | 64 | 0.0 | 0.0 | 0.00 | 0.00 | 0.00 | 52 | 1004.0 | |
| 20260506174401 | 64 | 0.0 | 0.0 | 0.00 | 0.00 | 0.00 | 51 | 1003.9 | |
| 20260506173400 | 65 | 0.0 | 0.0 | 0.00 | 0.00 | 0.00 | 51 | 1004.0 | |
| 20260506172400 | 65 | 0.0 | 0.0 | 0.00 | 0.00 | 0.00 | 50 | 1004.1 | |
| 20260506171400 | 66 | 0.0 | 0.0 | 0.00 | 0.00 | 0.00 | 48 | 1004.1 | |
| 20260506163911 | 67 | 0.0 | 0.0 | 0.00 | 0.00 | 0.00 | 43 | 1004.5 | |
| 20260506162911 | 67 | 0.0 | 0.0 | 0.00 | 0.00 | 0.00 | 43 | 1004.4 | |
| 20260506161911 | 67 | 0.0 | 0.0 | 0.00 | 0.00 | 0.00 | 42 | 1004.4 | |
| 20260506155648 | 67 | 0.0 | 0.0 | 0.00 | 0.00 | 0.00 | 44 | 1004.6 | |
| 20260506154647 | 67 | 0.0 | 0.0 | 0.00 | 0.00 | 0.00 | 44 | 1004.8 | |
| 20260506153647 | 66 | 0.0 | 0.0 | 0.00 | 0.00 | 0.00 | 45 | 1004.9 | |
| 20260506152648 | 67 | 0.0 | 0.0 | 0.00 | 0.00 | 0.00 | 44 | 1005.2 | |
| 20260506151648 | 66 | 0.0 | 0.0 | 0.00 | 0.00 | 0.00 | 45 | 1005.3 | |
| 20260506150647 | 67 | 0.0 | 0.0 | 0.00 | 0.00 | 0.00 | 46 | 1005.3 | |
| 20260506145647 | 66 | 0.0 | 0.0 | 0.00 | 0.00 | 0.00 | 47 | 1005.4 | |
| 20260506144648 | 67 | 0.0 | 0.0 | 0.00 | 0.00 | 0.00 | 45 | 1005.6 | |
| 20260506143648 | 66 | 0.0 | 0.0 | 0.00 | 0.00 | 0.00 | 48 | 1005.8 | |
| 20260506141423 | 65 | 0.0 | 0.0 | 0.00 | 0.00 | 0.00 | 50 | 1006.1 | |
| 20260506140423 | 66 | 0.0 | 0.0 | 0.00 | 0.00 | 0.00 | 49 | 1006.0 | |
| 20260506135423 | 66 | 0.0 | 0.0 | 0.00 | 0.00 | 0.00 | 47 | 1006.1 | |
| 20260506134423 | 66 | 0.0 | 0.0 | 0.00 | 0.00 | 0.00 | 49 | 1006.3 | |
| 20260506133423 | 66 | 0.0 | 0.0 | 0.00 | 0.00 | 0.00 | 47 | 1006.3 | |
| 20260506132423 | 67 | 0.0 | 0.0 | 0.00 | 0.00 | 0.00 | 46 | 1006.6 | |
| 20260506131423 | 66 | 0.0 | 0.0 | 0.00 | 0.00 | 0.00 | 45 | 1006.5 | |
| 20260506130423 | 66 | 0.0 | 0.0 | 0.00 | 0.00 | 0.00 | 45 | 1006.8 | |
| 20260506125423 | 67 | 0.0 | 0.0 | 0.00 | 0.00 | 0.00 | 43 | 1006.8 | |
| 20260506124423 | 67 | 0.0 | 0.0 | 0.00 | 0.00 | 0.00 | 45 | 1007.0 | |
| 20260506123423 | 66 | 0.0 | 0.0 | 0.00 | 0.00 | 0.00 | 44 | 1007.1 | |
| 20260506122423 | 66 | 0.0 | 0.0 | 0.00 | 0.00 | 0.00 | 46 | 1007.2 | |
| 20260506121424 | 65 | 0.0 | 0.0 | 0.00 | 0.00 | 0.00 | 44 | 1007.3 | |
| 20260506120423 | 65 | 0.0 | 0.0 | 0.00 | 0.00 | 0.00 | 46 | 1007.4 | |
| 20260506115423 | 66 | 0.0 | 0.0 | 0.00 | 0.00 | 0.00 | 43 | 1007.4 | |
| 20260506114423 | 65 | 0.0 | 0.0 | 0.00 | 0.00 | 0.00 | 44 | 1007.4 | |
| 20260506112159 | 65 | 0.0 | 0.0 | 0.00 | 0.00 | 0.00 | 47 | 1007.4 | |
| 20260506111159 | 64 | 0.0 | 0.0 | 0.00 | 0.00 | 0.00 | 49 | 1007.5 | |
| 20260506110159 | 65 | 0.0 | 0.0 | 0.00 | 0.00 | 0.00 | 46 | 1007.7 | |
| 20260506105159 | 64 | 0.0 | 0.0 | 0.00 | 0.00 | 0.00 | 50 | 1007.8 | |
| 20260506104159 | 65 | 0.0 | 0.0 | 0.00 | 0.00 | 0.00 | 52 | 1007.8 | |
| 20260506100712 | 64 | 0.0 | 0.0 | 0.00 | 0.00 | 0.00 | 53 | 1008.1 | |
| 20260506095712 | 64 | 0.0 | 0.0 | 0.00 | 0.00 | 0.00 | 52 | 1008.3 | |
| 20260506094712 | 63 | 0.0 | 0.0 | 0.00 | 0.00 | 0.00 | 53 | 1008.4 | |
| 20260506092448 | 63 | 0.0 | 0.0 | 0.00 | 0.00 | 0.00 | 55 | 1008.3 | |
| 20260506091449 | 61 | 0.0 | 0.0 | 0.00 | 0.00 | 0.00 | 56 | 1008.3 | |
| 20260506090448 | 63 | 0.0 | 0.0 | 0.00 | 0.00 | 0.00 | 58 | 1008.4 | |
| 20260506085448 | 62 | 0.0 | 0.0 | 0.00 | 0.00 | 0.00 | 59 | 1008.3 | |
| 20260506084448 | 60 | 0.0 | 0.0 | 0.00 | 0.00 | 0.00 | 61 | 1008.3 | |
| 20260506083448 | 61 | 0.0 | 0.0 | 0.00 | 0.00 | 0.00 | 60 | 1008.4 | |
| 20260506082448 | 60 | 0.0 | 0.0 | 0.00 | 0.00 | 0.00 | 62 | 1008.5 | |
| 20260506081448 | 62 | 0.0 | 0.0 | 0.00 | 0.00 | 0.00 | 62 | 1008.6 | |
| 20260506072959 | 59 | 0.0 | 0.0 | 0.00 | 0.00 | 0.00 | 67 | 1008.5 | |
| 20260506071959 | 58 | 0.0 | 0.0 | 0.00 | 0.00 | 0.00 | 67 | 1008.7 | |
| 20260506070959 | 57 | 0.0 | 0.0 | 0.00 | 0.00 | 0.00 | 66 | 1008.7 | |
| 20260506061735 | 55 | 0.0 | 0.0 | 0.00 | 0.00 | 0.00 | 75 | 1008.5 | |
| 20260506060735 | 55 | 0.0 | 0.0 | 0.00 | 0.00 | 0.00 | 75 | 1008.5 | |
| 20260506045024 | 51 | 0.0 | 0.0 | 0.00 | 0.00 | 0.00 | 93 | 1007.9 | |
| 20260506044025 | 52 | 0.0 | 0.0 | 0.00 | 0.00 | 0.00 | 92 | 1007.9 | |
| 20260506043025 | 52 | 0.0 | 0.0 | 0.00 | 0.00 | 0.00 | 90 | 1007.9 | |
| 20260506040800 | 53 | 0.0 | 0.0 | 0.00 | 0.00 | 0.00 | 90 | 1007.6 | |
| 20260506035800 | 53 | 0.0 | 0.0 | 0.00 | 0.00 | 0.00 | 90 | 1007.5 | |
| 20260506034800 | 53 | 0.0 | 0.0 | 0.00 | 0.00 | 0.00 | 93 | 1007.4 | |
| 20260506033800 | 53 | 0.0 | 0.0 | 0.00 | 0.00 | 0.00 | 95 | 1007.4 | |
| 20260506032800 | 52 | 0.0 | 0.0 | 0.00 | 0.00 | 0.00 | 95 | 1007.2 | |
| 20260506031800 | 52 | 0.0 | 0.0 | 0.00 | 0.00 | 0.00 | 95 | 1007.3 | |
| 20260506030800 | 52 | 0.0 | 0.0 | 0.00 | 0.00 | 0.00 | 94 | 1007.3 | |
| 20260506025800 | 52 | 0.0 | 0.0 | 0.00 | 0.00 | 0.00 | 93 | 1007.3 |